Time,TemperatureF,DewpointF,PressureIn,WindDirection,WindDirectionDegrees,WindSpeedMPH,WindSpeedGustMPH,Humidity,HourlyPrecipIn,Conditions,Clouds,dailyrainin,SolarRadiationWatts/m^2,SoftwareType,DateUTC
2013-01-03 00:22:00,9.0,4.0,-100.00,South,174,4.0,5.0,80,0.00,,,0.00,0.000000,,2013-01-03 07:22:00,
2013-01-03 00:33:00,9.0,4.0,-100.00,South,174,4.0,5.0,80,0.00,,,0.00,0.000000,,2013-01-03 07:33:00,
2013-01-03 00:42:00,9.0,4.0,-100.00,South,174,4.0,5.0,80,0.00,,,0.00,0.000000,,2013-01-03 07:42:00,
2013-01-03 00:51:00,9.0,4.0,-100.00,South,174,5.0,6.0,80,0.00,,,0.00,0.000000,,2013-01-03 07:51:00,
2013-01-03 01:22:00,9.0,4.0,-100.00,South,174,5.0,6.0,80,0.00,,,0.00,0.000000,,2013-01-03 08:22:00,
2013-01-03 01:33:00,9.0,4.0,-100.00,South,174,5.0,6.0,80,0.00,,,0.00,0.000000,,2013-01-03 08:33:00,
2013-01-03 01:42:00,9.0,4.0,-100.00,South,174,5.0,6.0,80,0.00,,,0.00,0.000000,,2013-01-03 08:42:00,
2013-01-03 01:51:00,9.0,4.0,-100.00,South,184,5.0,8.0,79,0.00,,,0.00,0.000000,,2013-01-03 08:51:00,
2013-01-03 02:12:00,9.0,4.0,-100.00,South,184,5.0,8.0,79,0.00,,,0.00,0.000000,,2013-01-03 09:12:00,
2013-01-03 02:22:00,9.0,4.0,-100.00,South,184,5.0,8.0,79,0.00,,,0.00,0.000000,,2013-01-03 09:22:00,
2013-01-03 02:33:00,9.0,4.0,-100.00,South,184,5.0,8.0,79,0.00,,,0.00,0.000000,,2013-01-03 09:33:00,
2013-01-03 02:43:00,9.0,4.0,-100.00,South,184,5.0,8.0,79,0.00,,,0.00,0.000000,,2013-01-03 09:43:00,
2013-01-03 02:51:00,10.0,4.0,-100.00,South,181,6.0,9.0,77,0.00,,,0.00,0.000000,,2013-01-03 09:51:00,
2013-01-03 03:22:00,10.0,4.0,-100.00,South,181,6.0,9.0,77,0.00,,,0.00,0.000000,,2013-01-03 10:22:00,
2013-01-03 03:33:00,10.0,4.0,-100.00,South,181,6.0,9.0,77,0.00,,,0.00,0.000000,,2013-01-03 10:33:00,
2013-01-03 03:42:00,10.0,4.0,-100.00,South,181,6.0,9.0,77,0.00,,,0.00,0.000000,,2013-01-03 10:42:00,
2013-01-03 03:51:00,10.0,3.0,-100.00,South,176,8.0,10.0,72,0.00,,,0.00,0.000000,,2013-01-03 10:51:00,
2013-01-03 04:12:00,10.0,3.0,-100.00,South,176,8.0,10.0,72,0.00,,,0.00,0.000000,,2013-01-03 11:12:00,
2013-01-03 04:22:00,10.0,3.0,-100.00,South,176,8.0,10.0,72,0.00,,,0.00,0.000000,,2013-01-03 11:22:00,
2013-01-03 04:33:00,10.0,3.0,-100.00,South,176,8.0,10.0,72,0.00,,,0.00,0.000000,,2013-01-03 11:33:00,
2013-01-03 04:43:00,10.0,3.0,-100.00,South,176,8.0,10.0,72,0.00,,,0.00,0.000000,,2013-01-03 11:43:00,
2013-01-03 04:51:00,10.0,2.0,-100.00,South,175,8.0,10.0,69,0.00,,,0.00,0.000000,,2013-01-03 11:51:00,
2013-01-03 05:12:00,10.0,2.0,-100.00,South,175,8.0,10.0,69,0.00,,,0.00,0.000000,,2013-01-03 12:12:00,
2013-01-03 05:22:00,10.0,2.0,-100.00,South,175,8.0,10.0,69,0.00,,,0.00,0.000000,,2013-01-03 12:22:00,
2013-01-03 05:33:00,10.0,2.0,-100.00,South,175,8.0,10.0,69,0.00,,,0.00,0.000000,,2013-01-03 12:33:00,
2013-01-03 05:42:00,10.0,2.0,-100.00,South,175,8.0,10.0,69,0.00,,,0.00,0.000000,,2013-01-03 12:42:00,
2013-01-03 05:51:00,9.0,0.0,-100.00,South,176,8.0,11.0,66,0.00,,,0.00,0.000000,,2013-01-03 12:51:00,
2013-01-03 06:22:00,9.0,0.0,-100.00,South,176,8.0,11.0,66,0.00,,,0.00,0.000000,,2013-01-03 13:22:00,
2013-01-03 06:33:00,9.0,0.0,-100.00,South,176,8.0,11.0,66,0.00,,,0.00,0.000000,,2013-01-03 13:33:00,
2013-01-03 06:42:00,9.0,0.0,-100.00,South,176,8.0,11.0,66,0.00,,,0.00,0.000000,,2013-01-03 13:42:00,
2013-01-03 06:51:00,9.0,-1.0,-100.00,SSE,168,9.0,13.0,63,0.00,,,0.00,0.000000,,2013-01-03 13:51:00,
2013-01-03 07:12:00,9.0,-1.0,-100.00,SSE,168,9.0,13.0,63,0.00,,,0.00,0.000000,,2013-01-03 14:12:00,
2013-01-03 07:23:00,9.0,-1.0,-100.00,SSE,168,9.0,13.0,63,0.00,,,0.00,0.000000,,2013-01-03 14:23:00,
2013-01-03 07:33:00,9.0,-1.0,-100.00,SSE,168,9.0,13.0,63,0.00,,,0.00,0.000000,,2013-01-03 14:33:00,
2013-01-03 07:42:00,9.0,-1.0,-100.00,SSE,168,9.0,13.0,63,0.00,,,0.00,0.000000,,2013-01-03 14:42:00,
2013-01-03 07:51:00,11.0,-1.0,-100.00,SSE,166,10.0,13.0,58,0.00,,,0.00,2.000000,,2013-01-03 14:51:00,
2013-01-03 08:12:00,11.0,-1.0,-100.00,SSE,166,10.0,13.0,58,0.00,,,0.00,2.000000,,2013-01-03 15:12:00,
2013-01-03 08:22:00,11.0,-1.0,-100.00,SSE,166,10.0,13.0,58,0.00,,,0.00,2.000000,,2013-01-03 15:22:00,
2013-01-03 08:33:00,11.0,-1.0,-100.00,SSE,166,10.0,13.0,58,0.00,,,0.00,2.000000,,2013-01-03 15:33:00,
2013-01-03 08:43:00,11.0,-1.0,-100.00,SSE,166,10.0,13.0,58,0.00,,,0.00,2.000000,,2013-01-03 15:43:00,
2013-01-03 08:51:00,15.0,1.0,-100.00,South,170,12.0,16.0,53,0.00,,,0.00,75.000000,,2013-01-03 15:51:00,
2013-01-03 09:12:00,15.0,1.0,-100.00,South,170,12.0,16.0,53,0.00,,,0.00,75.000000,,2013-01-03 16:12:00,
2013-01-03 09:22:00,15.0,1.0,-100.00,South,170,12.0,16.0,53,0.00,,,0.00,75.000000,,2013-01-03 16:22:00,
2013-01-03 09:33:00,15.0,1.0,-100.00,South,170,12.0,16.0,53,0.00,,,0.00,75.000000,,2013-01-03 16:33:00,
2013-01-03 09:43:00,15.0,1.0,-100.00,South,170,12.0,16.0,53,0.00,,,0.00,75.000000,,2013-01-03 16:43:00,
2013-01-03 09:51:00,21.0,3.0,-100.00,South,181,13.0,17.0,44,0.00,,,0.00,208.000000,,2013-01-03 16:51:00,
2013-01-03 10:12:00,21.0,3.0,-100.00,South,181,13.0,17.0,44,0.00,,,0.00,208.000000,,2013-01-03 17:12:00,
2013-01-03 10:23:00,21.0,3.0,-100.00,South,181,13.0,17.0,44,0.00,,,0.00,208.000000,,2013-01-03 17:23:00,
2013-01-03 10:33:00,21.0,3.0,-100.00,South,181,13.0,17.0,44,0.00,,,0.00,208.000000,,2013-01-03 17:33:00,
2013-01-03 10:43:00,21.0,3.0,-100.00,South,181,13.0,17.0,44,0.00,,,0.00,208.000000,,2013-01-03 17:43:00,
2013-01-03 10:51:00,25.0,3.0,-100.00,South,185,14.0,19.0,38,0.00,,,0.00,315.000000,,2013-01-03 17:51:00,
2013-01-03 11:13:00,25.0,3.0,-100.00,South,185,14.0,19.0,38,0.00,,,0.00,315.000000,,2013-01-03 18:13:00,
2013-01-03 11:22:00,25.0,3.0,-100.00,South,185,14.0,19.0,38,0.00,,,0.00,315.000000,,2013-01-03 18:22:00,
2013-01-03 11:33:00,25.0,3.0,-100.00,South,185,14.0,19.0,38,0.00,,,0.00,315.000000,,2013-01-03 18:33:00,
2013-01-03 11:42:00,25.0,3.0,-100.00,South,185,14.0,19.0,38,0.00,,,0.00,315.000000,,2013-01-03 18:42:00,
2013-01-03 11:51:00,28.0,5.0,-100.00,South,180,13.0,17.0,36,0.00,,,0.00,383.000000,,2013-01-03 18:51:00,
2013-01-03 12:51:00,31.0,8.0,-100.00,South,176,11.0,17.0,37,0.00,,,0.00,403.000000,,2013-01-03 19:51:00,
2013-01-03 13:22:00,31.0,8.0,-100.00,South,176,11.0,17.0,37,0.00,,,0.00,403.000000,,2013-01-03 20:22:00,
2013-01-03 13:33:00,31.0,8.0,-100.00,South,176,11.0,17.0,37,0.00,,,0.00,403.000000,,2013-01-03 20:33:00,
2013-01-03 13:42:00,31.0,8.0,-100.00,South,176,11.0,17.0,37,0.00,,,0.00,403.000000,,2013-01-03 20:42:00,
2013-01-03 13:51:00,33.0,10.0,-100.00,South,176,11.0,17.0,37,0.00,,,0.00,368.000000,,2013-01-03 20:51:00,
2013-01-03 14:12:00,33.0,10.0,-100.00,South,176,11.0,17.0,37,0.00,,,0.00,368.000000,,2013-01-03 21:12:00,
2013-01-03 14:22:00,33.0,10.0,-100.00,South,176,11.0,17.0,37,0.00,,,0.00,368.000000,,2013-01-03 21:22:00,
2013-01-03 14:36:00,33.0,10.0,-100.00,South,176,11.0,17.0,37,0.00,,,0.00,368.000000,,2013-01-03 21:36:00,
2013-01-03 14:48:00,33.0,10.0,-100.00,South,176,11.0,17.0,37,0.00,,,0.00,368.000000,,2013-01-03 21:48:00,
2013-01-03 14:51:00,34.0,9.0,-100.00,South,183,10.0,15.0,35,0.00,,,0.00,284.000000,,2013-01-03 21:51:00,
2013-01-03 15:22:00,34.0,9.0,-100.00,South,183,10.0,15.0,35,0.00,,,0.00,284.000000,,2013-01-03 22:22:00,
2013-01-03 15:33:00,34.0,9.0,-100.00,South,183,10.0,15.0,35,0.00,,,0.00,284.000000,,2013-01-03 22:33:00,
2013-01-03 15:42:00,34.0,9.0,-100.00,South,183,10.0,15.0,35,0.00,,,0.00,284.000000,,2013-01-03 22:42:00,
2013-01-03 15:51:00,33.0,11.0,-100.00,South,178,10.0,14.0,39,0.00,,,0.00,166.000000,,2013-01-03 22:51:00,
2013-01-03 16:22:00,33.0,11.0,-100.00,South,178,10.0,14.0,39,0.00,,,0.00,166.000000,,2013-01-03 23:22:00,
2013-01-03 16:33:00,33.0,11.0,-100.00,South,178,10.0,14.0,39,0.00,,,0.00,166.000000,,2013-01-03 23:33:00,
2013-01-03 16:43:00,33.0,11.0,-100.00,South,178,10.0,14.0,39,0.00,,,0.00,166.000000,,2013-01-03 23:43:00,
2013-01-03 16:51:00,29.0,9.0,-100.00,South,182,5.0,13.0,43,0.00,,,0.00,31.000000,,2013-01-03 23:51:00,
2013-01-03 17:12:00,29.0,9.0,-100.00,South,182,5.0,13.0,43,0.00,,,0.00,31.000000,,2013-01-04 00:12:00,
2013-01-03 17:22:00,29.0,9.0,-100.00,South,182,5.0,13.0,43,0.00,,,0.00,31.000000,,2013-01-04 00:22:00,
2013-01-03 17:32:00,29.0,9.0,-100.00,South,182,5.0,13.0,43,0.00,,,0.00,31.000000,,2013-01-04 00:32:00,
2013-01-03 17:42:00,29.0,9.0,-100.00,South,182,5.0,13.0,43,0.00,,,0.00,31.000000,,2013-01-04 00:42:00,
2013-01-03 17:51:00,27.0,9.0,-100.00,South,182,9.0,14.0,45,0.00,,,0.00,0.000000,,2013-01-04 00:51:00,
2013-01-03 18:12:00,27.0,9.0,-100.00,South,182,9.0,14.0,45,0.00,,,0.00,0.000000,,2013-01-04 01:12:00,
2013-01-03 18:22:00,27.0,9.0,-100.00,South,182,9.0,14.0,45,0.00,,,0.00,0.000000,,2013-01-04 01:22:00,
2013-01-03 18:32:00,27.0,9.0,-100.00,South,182,9.0,14.0,45,0.00,,,0.00,0.000000,,2013-01-04 01:32:00,
2013-01-03 18:42:00,27.0,9.0,-100.00,South,182,9.0,14.0,45,0.00,,,0.00,0.000000,,2013-01-04 01:42:00,
2013-01-03 18:51:00,27.0,8.0,-100.00,South,173,11.0,17.0,43,0.00,,,0.00,0.000000,,2013-01-04 01:51:00,
2013-01-03 19:12:00,27.0,8.0,-100.00,South,173,11.0,17.0,43,0.00,,,0.00,0.000000,,2013-01-04 02:12:00,
2013-01-03 19:22:00,27.0,8.0,-100.00,South,173,11.0,17.0,43,0.00,,,0.00,0.000000,,2013-01-04 02:22:00,
2013-01-03 19:32:00,27.0,8.0,-100.00,South,173,11.0,17.0,43,0.00,,,0.00,0.000000,,2013-01-04 02:32:00,
2013-01-03 19:42:00,27.0,8.0,-100.00,South,173,11.0,17.0,43,0.00,,,0.00,0.000000,,2013-01-04 02:42:00,
2013-01-03 19:51:00,25.0,7.0,-100.00,SSE,167,12.0,15.0,45,0.00,,,0.00,0.000000,,2013-01-04 02:51:00,
2013-01-03 20:12:00,25.0,7.0,-100.00,SSE,167,12.0,15.0,45,0.00,,,0.00,0.000000,,2013-01-04 03:12:00,
2013-01-03 20:22:00,25.0,7.0,-100.00,SSE,167,12.0,15.0,45,0.00,,,0.00,0.000000,,2013-01-04 03:22:00,
2013-01-03 20:32:00,25.0,7.0,-100.00,SSE,167,12.0,15.0,45,0.00,,,0.00,0.000000,,2013-01-04 03:32:00,
2013-01-03 20:42:00,25.0,7.0,-100.00,SSE,167,12.0,15.0,45,0.00,,,0.00,0.000000,,2013-01-04 03:42:00,
2013-01-03 20:51:00,23.0,6.0,-100.00,South,175,9.0,15.0,48,0.00,,,0.00,0.000000,,2013-01-04 03:51:00,
2013-01-03 21:12:00,23.0,6.0,-100.00,South,175,9.0,15.0,48,0.00,,,0.00,0.000000,,2013-01-04 04:12:00,
2013-01-03 21:22:00,23.0,6.0,-100.00,South,175,9.0,15.0,48,0.00,,,0.00,0.000000,,2013-01-04 04:22:00,
2013-01-03 21:32:00,23.0,6.0,-100.00,South,175,9.0,15.0,48,0.00,,,0.00,0.000000,,2013-01-04 04:32:00,
2013-01-03 21:42:00,23.0,6.0,-100.00,South,175,9.0,15.0,48,0.00,,,0.00,0.000000,,2013-01-04 04:42:00,
2013-01-03 21:51:00,22.0,4.0,-100.00,South,176,8.0,12.0,46,0.00,,,0.00,0.000000,,2013-01-04 04:51:00,
2013-01-03 22:22:00,22.0,4.0,-100.00,South,176,8.0,12.0,46,0.00,,,0.00,0.000000,,2013-01-04 05:22:00,
2013-01-03 22:33:00,22.0,4.0,-100.00,South,176,8.0,12.0,46,0.00,,,0.00,0.000000,,2013-01-04 05:33:00,
2013-01-03 22:42:00,22.0,4.0,-100.00,South,176,8.0,12.0,46,0.00,,,0.00,0.000000,,2013-01-04 05:42:00,
2013-01-03 22:51:00,22.0,4.0,-100.00,South,171,12.0,15.0,45,0.00,,,0.00,0.000000,,2013-01-04 05:51:00,
2013-01-03 23:12:00,22.0,4.0,-100.00,South,171,12.0,15.0,45,0.00,,,0.00,0.000000,,2013-01-04 06:12:00,
2013-01-03 23:22:00,22.0,4.0,-100.00,South,171,12.0,15.0,45,0.00,,,0.00,0.000000,,2013-01-04 06:22:00,
2013-01-03 23:33:00,22.0,4.0,-100.00,South,171,12.0,15.0,45,0.00,,,0.00,0.000000,,2013-01-04 06:33:00,
2013-01-03 23:42:00,22.0,4.0,-100.00,South,171,12.0,15.0,45,0.00,,,0.00,0.000000,,2013-01-04 06:42:00,
2013-01-03 23:51:00,21.0,3.0,-100.00,South,169,12.0,17.0,45,0.00,,,0.00,0.000000,,2013-01-04 06:51:00,